When you browse on this site, cookies collect data to enhance your experience and personalize the content and advertising you see.
Visit our Privacy Policy to learn more. By continuing to use the site, you agree to this use of cookies and data.
  • In United Kingdom
  • List of Countries
  • For 7 days
  • Water Temperature
  • Weather Map
  • Weather Widgets
  • user-avatar
    Login

    Hourly Weather Bonn

    Today, 26 August, Monday

    Time Temperature Precipitation Wind Pressure Humidity
    00:00 +23°C° 0 mm 1 mps 757 mmHg 73%
    01:00 +23°C° 0 mm 1 mps 757 mmHg 74%
    02:00 +20°C° 0 mm 0 mps 757 mmHg 76%
    03:00 +20°C° 0 mm 0 mps 757 mmHg 77%
    04:00 +21°C° 0 mm 0 mps 757 mmHg 76%
    05:00 +21°C° 0 mm 0 mps 757 mmHg 75%
    06:00 +22°C° 0 mm 0 mps 758 mmHg 74%
    07:00 +24°C° 0 mm 0 mps 758 mmHg 67%
    08:00 +26°C° 0 mm 0 mps 758 mmHg 59%
    09:00 +28°C° 0 mm 0 mps 758 mmHg 52%
    10:00 +31°C° 0 mm 1 mps 757 mmHg 48%
    11:00 +32°C° 0 mm 1 mps 757 mmHg 44%
    12:00 +34°C° 0 mm 1 mps 757 mmHg 40%
    13:00 +34°C° 0 mm 1 mps 757 mmHg 39%
    14:00 +34°C° 0 mm 1 mps 756 mmHg 39%
    15:00 +34°C° 0 mm 1 mps 756 mmHg 38%
    16:00 +32°C° 0 mm 1 mps 756 mmHg 43%
    17:00 +31°C° 0 mm 1 mps 756 mmHg 49%
    18:00 +29°C° 0 mm 1 mps 756 mmHg 54%
    19:00 +28°C° 0.1 mm 1 mps 756 mmHg 58%
    20:00 +26°C° 0.1 mm 1 mps 756 mmHg 61%
    21:00 +25°C° 0.1 mm 1 mps 756 mmHg 65%
    22:00 +24°C° 0 mm 1 mps 756 mmHg 67%
    23:00 +24°C° 0 mm 1 mps 756 mmHg 68%

    Tomorrow, 27 August, Tuesday

    Time Temperature Precipitation Wind Pressure Humidity
    00:00 +23°C° 0 mm 1 mps 756 mmHg 70%
    01:00 +23°C° 0 mm 1 mps 756 mmHg 72%
    02:00 +23°C° 0 mm 1 mps 756 mmHg 73%
    03:00 +22°C° 0 mm 1 mps 755 mmHg 74%
    04:00 +23°C° 0 mm 1 mps 756 mmHg 74%
    05:00 +23°C° 0 mm 1 mps 756 mmHg 74%
    06:00 +24°C° 0 mm 1 mps 756 mmHg 73%
    07:00 +26°C° 0 mm 1 mps 756 mmHg 66%
    08:00 +28°C° 0 mm 1 mps 756 mmHg 58%
    09:00 +30°C° 0 mm 2 mps 756 mmHg 50%
    10:00 +31°C° 0 mm 1 mps 755 mmHg 46%
    11:00 +33°C° 0 mm 1 mps 755 mmHg 41%
    12:00 +34°C° 0 mm 1 mps 755 mmHg 36%
    13:00 +34°C° 0 mm 1 mps 755 mmHg 37%
    14:00 +33°C° 0 mm 1 mps 754 mmHg 38%
    15:00 +33°C° 0 mm 1 mps 754 mmHg 40%
    16:00 +32°C° 0 mm 1 mps 754 mmHg 44%
    17:00 +30°C° 0 mm 1 mps 754 mmHg 49%
    18:00 +29°C° 0 mm 1 mps 754 mmHg 53%
    19:00 +28°C° 0 mm 1 mps 754 mmHg 55%
    20:00 +27°C° 0 mm 1 mps 754 mmHg 56%
    21:00 +26°C° 0 mm 1 mps 755 mmHg 58%
    22:00 +26°C° 0 mm 1 mps 755 mmHg 60%
    23:00 +25°C° 0 mm 1 mps 755 mmHg 62%

    Day after tomorrow, 28 August, Wednesday

    Time Temperature Precipitation Wind Pressure Humidity
    00:00 +24°C° 0 mm 1 mps 755 mmHg 63%
    01:00 +24°C° 0 mm 1 mps 755 mmHg 65%
    02:00 +23°C° 0 mm 1 mps 754 mmHg 67%
    03:00 +23°C° 0 mm 1 mps 754 mmHg 69%
    04:00 +23°C° 0 mm 1 mps 755 mmHg 69%
    05:00 +23°C° 0 mm 1 mps 755 mmHg 69%
    06:00 +24°C° 0 mm 1 mps 755 mmHg 69%
    07:00 +26°C° 0 mm 1 mps 755 mmHg 60%
    08:00 +28°C° 0 mm 1 mps 755 mmHg 52%
    09:00 +31°C° 0 mm 1 mps 755 mmHg 44%
    10:00 +32°C° 0 mm 2 mps 754 mmHg 40%
    11:00 +34°C° 0 mm 2 mps 754 mmHg 36%
    12:00 +35°C° 0 mm 2 mps 754 mmHg 32%
    13:00 +35°C° 0 mm 2 mps 754 mmHg 34%
    14:00 +35°C° 0 mm 2 mps 754 mmHg 36%
    15:00 +34°C° 0 mm 2 mps 754 mmHg 39%
    16:00 +32°C° 0 mm 2 mps 754 mmHg 45%
    17:00 +30°C° 0 mm 2 mps 754 mmHg 51%
    18:00 +28°C° 0 mm 1 mps 754 mmHg 56%
    19:00 +27°C° 0 mm 1 mps 754 mmHg 59%
    20:00 +26°C° 0 mm 1 mps 754 mmHg 62%
    21:00 +23°C° 0 mm 0 mps 754 mmHg 65%
    22:00 +24°C° 0 mm 1 mps 754 mmHg 66%
    23:00 +24°C° 0 mm 1 mps 754 mmHg 68%

    29 August, Thursday

    Time Temperature Precipitation Wind Pressure Humidity
    00:00 +24°C° 0 mm 1 mps 754 mmHg 69%
    01:00 +23°C° 0.7 mm 1 mps 754 mmHg 74%
    02:00 +22°C° 0.7 mm 1 mps 754 mmHg 80%
    03:00 +22°C° 0.7 mm 1 mps 754 mmHg 85%
    04:00 +22°C° 0.2 mm 1 mps 754 mmHg 85%
    05:00 +22°C° 0.2 mm 1 mps 754 mmHg 85%
    06:00 +22°C° 0.2 mm 1 mps 754 mmHg 85%
    07:00 +23°C° 0.2 mm 1 mps 755 mmHg 80%
    08:00 +25°C° 0.2 mm 1 mps 755 mmHg 75%
    09:00 +26°C° 0.2 mm 1 mps 756 mmHg 69%
    10:00 +27°C° 0.3 mm 2 mps 756 mmHg 67%
    11:00 +27°C° 0.3 mm 3 mps 756 mmHg 66%
    12:00 +28°C° 0.3 mm 4 mps 756 mmHg 64%
    13:00 +28°C° 0.2 mm 4 mps 756 mmHg 63%
    14:00 +27°C° 0.2 mm 4 mps 756 mmHg 62%
    15:00 +27°C° 0.2 mm 4 mps 756 mmHg 60%
    16:00 +26°C° 0 mm 3 mps 756 mmHg 63%
    17:00 +25°C° 0 mm 3 mps 756 mmHg 65%
    18:00 +24°C° 0 mm 2 mps 757 mmHg 67%
    19:00 +23°C° 0 mm 2 mps 757 mmHg 71%
    20:00 +21°C° 0 mm 2 mps 758 mmHg 76%
    21:00 +19°C° 0 mm 2 mps 758 mmHg 80%
    22:00 +19°C° 0 mm 2 mps 758 mmHg 81%
    23:00 +19°C° 0 mm 1 mps 758 mmHg 83%

    30 August, Friday

    Time Temperature Precipitation Wind Pressure Humidity
    00:00 +19°C° 0 mm 1 mps 759 mmHg 84%
    01:00 +19°C° 0 mm 1 mps 759 mmHg 83%
    02:00 +19°C° 0 mm 1 mps 759 mmHg 83%
    03:00 +17°C° 0 mm 0 mps 759 mmHg 82%
    04:00 +17°C° 0 mm 0 mps 759 mmHg 81%
    05:00 +17°C° 0 mm 0 mps 759 mmHg 80%
    06:00 +17°C° 0 mm 0 mps 759 mmHg 79%
    07:00 +21°C° 0 mm 1 mps 759 mmHg 73%
    08:00 +22°C° 0 mm 1 mps 759 mmHg 67%
    09:00 +24°C° 0 mm 1 mps 759 mmHg 61%
    10:00 +25°C° 0 mm 1 mps 759 mmHg 57%
    11:00 +26°C° 0 mm 1 mps 759 mmHg 53%
    12:00 +27°C° 0 mm 1 mps 759 mmHg 49%
    13:00 +27°C° 0 mm 1 mps 758 mmHg 49%
    14:00 +27°C° 0 mm 1 mps 758 mmHg 49%
    15:00 +27°C° 0 mm 1 mps 758 mmHg 49%
    16:00 +25°C° 0 mm 1 mps 757 mmHg 53%
    17:00 +24°C° 0 mm 1 mps 757 mmHg 58%
    18:00 +23°C° 0 mm 1 mps 757 mmHg 63%
    19:00 +22°C° 0 mm 1 mps 757 mmHg 66%
    20:00 +21°C° 0 mm 1 mps 757 mmHg 69%
    21:00 +18°C° 0 mm 0 mps 757 mmHg 72%
    22:00 +17°C° 0 mm 0 mps 757 mmHg 75%
    23:00 +17°C° 0 mm 0 mps 757 mmHg 77%

    31 August, Saturday

    Time Temperature Precipitation Wind Pressure Humidity
    00:00 +17°C° 0 mm 0 mps 757 mmHg 79%
    01:00 +18°C° 0 mm 1 mps 756 mmHg 80%
    02:00 +18°C° 0 mm 1 mps 756 mmHg 82%
    03:00 +18°C° 0 mm 1 mps 755 mmHg 83%
    04:00 +19°C° 0 mm 1 mps 755 mmHg 82%
    05:00 +19°C° 0 mm 1 mps 755 mmHg 82%
    06:00 +19°C° 0 mm 1 mps 755 mmHg 81%
    07:00 +21°C° 0 mm 1 mps 755 mmHg 73%
    08:00 +22°C° 0 mm 1 mps 755 mmHg 64%
    09:00 +24°C° 0 mm 2 mps 755 mmHg 55%
    10:00 +25°C° 0 mm 2 mps 755 mmHg 50%
    11:00 +26°C° 0 mm 2 mps 754 mmHg 44%
    12:00 +27°C° 0 mm 3 mps 754 mmHg 38%
    13:00 +27°C° 0 mm 3 mps 754 mmHg 38%
    14:00 +27°C° 0 mm 3 mps 753 mmHg 37%
    15:00 +27°C° 0 mm 3 mps 753 mmHg 37%
    16:00 +26°C° 0 mm 2 mps 753 mmHg 43%
    17:00 +24°C° 0 mm 2 mps 753 mmHg 48%
    18:00 +23°C° 0 mm 1 mps 753 mmHg 54%
    19:00 +21°C° 0 mm 1 mps 753 mmHg 57%
    20:00 +20°C° 0 mm 1 mps 753 mmHg 60%
    21:00 +19°C° 0 mm 1 mps 753 mmHg 63%
    22:00 +19°C° 0 mm 1 mps 753 mmHg 65%
    23:00 +18°C° 0 mm 1 mps 753 mmHg 67%
    Show more